Regional Weather Roundup
Issued by NWS

Home | Current Version | Previous Version | Graphics & Text | Print | Product List | Glossary On
Versions: 1 2 3 4 5 6 7 8 9 10 11 12 13 14 15 16 17 18 19 20 21 22 23 24 25 26 27 28 29 30 31 32 33 34 35 36 37 38 39 40 41 42 43 44 45 46 47 48 49 50
000
ASUS43 KOAX 270802
RWRNE

WEATHER ROUNDUP FOR NEBRASKA
NATIONAL WEATHER SERVICE OMAHA NE
300 AM CDT FRI MAR 27 2015

NOTES: SATELLITE DATA IS BEING USED TO AUGMENT CLOUD COVER ABOVE
       12000 FEET.
       "FAIR" INDICATES FEW OR NO CLOUDS BELOW 12,000 FEET WITH NO
       SIGNIFICANT WEATHER AND/OR OBSTRUCTIONS TO VISIBILITY.

  * THESE STATIONS DO NOT REPORT WEATHER SUCH AS RAIN...SNOW OR FOG.

NEZ001>004-019>022-054>056-270900-
NEBRASKA PANHANDLE

CITY           SKY/WX    TMP DP  RH WIND       PRES   REMARKS
SCOTTSBLUFF    LGT RAIN  40  32  73 E9        30.16R WCI  34
ALLIANCE       CLOUDY    35  31  85 SE6       30.16F WCI  30
CHADRON        CLOUDY    38  33  82 S5        30.14F WCI  34
KIMBALL        CLOUDY    39  32  76 SW7       30.13F WCI  34
SIDNEY         CLOUDY    37  30  75 SE6       30.16F WCI  32
$$

NEZ057>060-069>072-079>082-270900-
SOUTHWEST NEBRASKA

CITY           SKY/WX    TMP DP  RH WIND       PRES   REMARKS
NORTH PLATTE   CLOUDY    32  26  78 E7        30.23R WCI  26
IMPERIAL       FLURRIES  36  28  73 E6        30.22R WCI  31
MCCOOK         CLOUDY    35  28  75 E6        30.24R WCI  30
$$

NEZ005>010-023>029-035>040-094-270900-
NORTH CENTRAL NEBRASKA

CITY           SKY/WX    TMP DP  RH WIND       PRES   REMARKS
VALENTINE      CLOUDY    31  25  78 CALM      30.21F
AINSWORTH      CLOUDY    32  28  86 CALM      30.22S
BROKEN BOW     CLOUDY    33  26  75 NW3       30.22S
ORD            MOCLDY    28  23  81 N6        30.23R WCI  22
$$

NEZ041-046>049-061>064-073>077-083>087-270900-
SOUTH CENTRAL NEBRASKA

CITY           SKY/WX    TMP DP  RH WIND       PRES   REMARKS
GRAND ISLAND   PTCLDY    24  21  88 NW8       30.24R WCI  15
AURORA         PTCLDY    28  26  94 NW6       30.22R WCI  21
HASTINGS       PTCLDY    28  24  85 NW7       30.22S WCI  21
HEBRON         PTCLDY    29  27  92 NW5       30.23S WCI  24
HOLDREGE       CLOUDY    32  25  76 NE10      30.23S WCI  24
KEARNEY *      MOCLDY    30  23  74 N7        30.24R WCI  23
YORK           PTCLDY    28  27  93 N6        30.22S WCI  22
$$

NEZ011>018-030>034-042>045-270900-
NORTHEAST NEBRASKA

CITY           SKY/WX    TMP DP  RH WIND       PRES   REMARKS
NORFOLK        PTCLDY    27  19  72 NE7       30.24S WCI  19
ALBION         PTCLDY    28  24  82 CALM      30.24R
BLAIR          PTCLDY    30  20  66 N15       30.22S WCI  19
COLUMBUS *     PTCLDY    27  18  69 NE8       30.25S WCI  18
FREMONT        PTCLDY    29  22  75 N6        30.25R WCI  23
TEKAMAH        CLEAR     24  19  81 NW10      30.26R WCI  14
WAYNE          CLEAR     18  15  86 N3        30.26R
$$

NEZ050>053-065>068-078-088>093-270900-
SOUTHEAST NEBRASKA

CITY           SKY/WX    TMP DP  RH WIND       PRES   REMARKS
LINCOLN        CLEAR     29  26  89 N13       30.24R WCI  19
OMAHA EPPLEY   PTCLDY    29  23  78 N10       30.24R WCI  20
BEATRICE       CLEAR     27  26  97 N8        30.21S WCI  18
FALLS CITY     CLEAR     31  29  92 NW6       30.20R WCI  25
NEBRASKA CITY  CLEAR     31  31 100 N9        30.21S WCI  23
PLATTSMOUTH    CLOUDY    30  25  81 N7        30.22R WCI  23
$$

NEZ044-045-051>053-067-270900-
OMAHA AREA

CITY           SKY/WX    TMP DP  RH WIND       PRES   REMARKS
OMAHA EPPLEY   PTCLDY    29  23  78 N10       30.24R WCI  20
BLAIR          PTCLDY    30  20  66 N15       30.22S WCI  19
FREMONT        PTCLDY    29  22  75 N6        30.25R WCI  23
OFFUTT AFB     PTCLDY    30  24  78 NE7       30.22S WCI  23
PLATTSMOUTH    CLOUDY    30  25  81 N7        30.22R WCI  23
WAHOO          FAIR      28  23  82 N7        30.24R WCI  20
$$



USA.gov is the U.S. government's official web portal to all federal, state and local government web resources and services.